[[{"header":{"parameterUnit":"m.s-1","parameterCategory":1,"la1":30.2991,"la2":30.254,"lo1":-89.0895,"lo2":-89.0444,"dy":0.0017,"dx":0.0017,"nx":28,"ny":28,"refTime":"2024-02-18T09:00:00:Z","depth":0,"parameterNumber":2,"parameterNumberName":"U-component_of_WINDS"},"data":[0,0,0,0,0,0,0,0,0,0,0,0,0,0,0,0,0,0,0,0,0,0,0,0,0,0,0,0,0,0,0,0,0,0,0,0,0,0,0,0,0,0,0,0,0,0,0,0,0,0,0,0,0,0,0,0,0,0,2.0521,2.0522,0,2.0609,2.061,2.0611,2.0597,2.0596,2.0594,2.0593,2.0685,2.0688,2.0692,0,0,0,0,0,0,0,0,0,0,0,0,0,2.0342,2.0345,2.0521,2.0522,2.0523,2.0609,2.061,2.0611,2.0597,2.0596,2.0594,2.0592,2.0683,2.0688,2.0693,0,0,0,0,0,0,0,0,0,0,0,0,0,2.0424,2.0346,2.0521,2.0526,2.0528,2.0609,2.061,2.0612,2.0598,2.0595,2.0593,2.0591,2.0682,2.0687,2.0693,2.0775,0,0,2.0711,2.0713,0,0,0,0,0,0,0,0,2.0419,2.043,2.0525,2.0526,2.0528,2.059,2.0581,2.0666,2.0598,2.0571,2.0593,2.059,2.0655,2.0663,2.0684,2.0779,2.0783,2.0711,2.0715,2.0717,2.0719,0,0,0,0,0,0,0,2.0414,2.0427,2.0556,2.0526,2.0528,2.0525,2.0534,2.0597,2.0625,2.0573,2.0573,2.0583,2.0656,2.0679,2.0687,2.0784,2.0711,2.0716,2.072,2.0722,2.0949,2.0951,0,0,0,0,0,0,2.0406,2.0422,2.0553,2.0559,2.0467,2.053,2.054,2.0572,2.0624,2.063,2.0585,2.0582,2.067,2.068,2.069,2.0787,2.0717,2.0723,2.0726,2.0946,2.095,2.0952,0,0,0,0,0,0,2.0402,2.0418,2.055,2.049,2.0507,2.0536,2.0572,2.0575,2.0598,2.0633,2.0638,2.0604,2.0669,2.0682,2.0753,2.079,2.0725,2.0731,2.0943,2.0947,2.0951,2.0984,0,0,0,0,0,0,2.0397,2.0417,2.0447,2.0491,2.051,2.0611,2.0574,2.0579,2.0608,2.0605,2.0652,2.0657,2.0668,2.0745,2.0759,2.0797,2.0735,2.094,2.0945,2.095,2.098,2.0988,2.0996,0,0,0,0,0,2.0391,2.0454,2.0449,2.0465,2.0549,2.0613,2.0624,2.0635,2.0611,2.0643,2.0665,2.0656,2.0784,2.0752,2.0768,2.0809,2.0938,2.0944,2.0949,2.0976,2.0987,2.0996,0,0,0,0,0,0,2.0415,2.046,2.0455,2.0534,2.057,2.0611,2.0651,2.0646,2.069,2.0685,2.0697,2.0708,2.078,2.0802,2.0765,2.089,2.0858,2.0867,2.0873,2.0883,2.0891,2.0884,2.074,0,0,0,0,0,2.0429,2.0477,2.0514,2.058,2.0598,2.0622,2.065,2.0655,2.0693,2.0708,2.0736,2.0773,2.0822,2.0854,2.0901,2.0983,2.0993,2.1019,2.1027,2.1034,2.1041,2.1085,2.1097,2.0971,2.0971,2.0971,0,0,2.0459,2.049,2.0519,2.0586,2.0614,2.0664,2.0634,2.0689,2.0725,2.0717,2.0785,2.0807,2.085,2.0927,2.0962,2.0947,2.1078,2.1041,2.1046,2.105,2.1092,2.1104,2.1115,2.0975,2.0974,2.0974,0,0,2.0539,2.0568,2.0625,2.0654,2.0697,2.0712,2.0726,2.0768,2.0782,2.0851,2.0845,2.089,2.0974,2.1005,2.1031,2.1123,2.1116,2.1138,2.118,2.1223,2.1233,2.1242,2.1273,2.1284,2.1146,2.1146,2.1146,0,2.0571,2.0645,2.0655,2.071,2.0739,2.0733,2.0791,2.0819,2.0876,2.0896,2.0879,2.0984,2.1012,2.1096,2.1118,2.114,2.1156,2.1132,2.1231,2.124,2.1248,2.1278,2.129,2.1148,2.1148,2.1148,2.1147,0,2.0682,2.0734,2.0775,2.0829,2.0863,2.0919,2.0938,2.0971,2.0974,2.0991,2.1061,2.1095,2.1148,2.1169,2.1172,2.1253,2.1242,2.1228,2.1196,2.1262,2.129,2.1302,2.1151,2.1151,2.115,2.1149,0,0,2.0779,2.0838,2.0852,2.0876,2.0924,2.0964,2.102,2.1072,2.1099,2.1139,2.1186,2.1257,2.1244,2.1274,2.1281,2.1319,2.1388,2.1299,2.1301,2.1313,2.1478,2.1487,2.15,2.1384,2.1386,2.1388,2.1473,0,2.0862,2.096,2.0971,2.1059,2.1106,2.1101,2.115,2.1185,2.1202,2.1245,2.1265,2.1315,2.1294,2.1312,2.1349,2.1371,2.1421,2.1366,2.1427,2.1429,2.1415,2.1515,2.1526,2.1605,2.1485,2.1487,2.1488,0,2.0973,2.1014,2.1106,2.1146,2.1167,2.121,2.1258,2.1299,2.1339,2.1349,2.1382,2.1384,2.1442,2.1409,2.1488,2.1451,2.1477,2.1492,2.1495,2.15,2.1461,2.1522,2.163,2.1641,2.1506,2.1505,2.1503,0,2.1032,2.1112,2.1177,2.1198,2.1247,2.1277,2.1299,2.1336,2.1366,2.1408,2.1427,2.1476,2.1503,2.154,2.1555,2.153,2.1634,2.1602,2.1643,2.1643,2.1664,2.1662,2.1777,2.1684,2.1684,2.1683,2.1683,0,2.1123,2.1179,2.1204,2.1244,2.1306,2.1319,2.138,2.1401,2.1434,2.1478,2.1478,2.1519,2.1537,2.1581,2.1593,2.1657,2.1669,2.1679,2.1681,2.1678,2.1676,2.1694,2.1688,2.1687,2.1686,2.1685,2.1685,0,2.12,2.1218,2.1289,2.1329,2.1341,2.1385,2.142,2.1458,2.1475,2.1531,2.1545,2.1572,2.1624,2.1643,2.1706,2.1714,2.1788,2.1786,2.1774,2.1774,2.1814,2.1809,2.1942,2.196,2.1856,2.1857,2.1858,0,2.1256,2.1299,2.1344,2.1372,2.1395,2.1442,2.1473,2.1487,2.1518,2.1566,2.1599,2.165,2.1692,2.1776,2.1801,2.185,2.1848,2.1892,2.1856,2.1851,2.1847,2.1844,2.1848,2.1898,2.1899,2.19,2.1901,0,2.1353,2.136,2.1403,2.145,2.1486,2.1524,2.1561,2.1585,2.1604,2.164,2.1693,2.1725,2.1789,2.184,2.189,2.1913,2.191,2.1912,2.1924,2.192,2.191,2.1915,2.179,2.1908,2.1908,2.1907,2.1907,2.1906,2.142,2.1457,2.1494,2.1543,2.1572,2.1606,2.1644,2.1665,2.1709,2.1762,2.1768,2.1825,2.1863,2.1929,2.1954,2.1999,2.1987,2.2004,2.2009,2.2012,2.2014,2.1905,2.2008,2.2008,2.2008,2.2008,2.2007,0,2.1516,2.1539,2.1584,2.1634,2.1672,2.1666,2.1706,2.1738,2.1788,2.1823,2.1864,2.1925,2.1974,2.2003,2.2053,2.2083,2.2083,2.2095,2.2092,2.2098,2.2023,2.2007,2.2095,2.2095,2.2095,2.2095,2.2094,2.2094,2.157,2.1632,2.1644,2.1721,2.1744,2.1799,2.1822,2.1854,2.1882,2.1949,2.1989,2.2008,2.2041,2.2093,2.2138,2.2146,2.2163,2.2177,2.2183,2.2112,2.2103,2.2094,2.2079,2.2181,2.2181,2.2254,2.2254,2.2255]},{"header":{"parameterUnit":"m.s-1","parameterCategory":1,"la1":30.2991,"la2":30.254,"lo1":-89.0895,"lo2":-89.0444,"dy":0.0017,"dx":0.0017,"nx":28,"ny":28,"refTime":"2024-02-18T09:00:00:Z","depth":0,"parameterNumber":3,"parameterNumberName":"V-component_of_WINDS"},"data":[0,0,0,0,0,0,0,0,0,0,0,0,0,0,0,0,0,0,0,0,0,0,0,0,0,0,0,0,0,0,0,0,0,0,0,0,0,0,0,0,0,0,0,0,0,0,0,0,0,0,0,0,0,0,0,0,0,0,0.9612,0.9611,0,0.9543,0.9542,0.9541,0.9492,0.9492,0.9492,0.9491,0.9419,0.9418,0.9416,0,0,0,0,0,0,0,0,0,0,0,0,0,0.9697,0.9696,0.9612,0.9611,0.961,0.9543,0.9542,0.9541,0.9492,0.9492,0.9491,0.9491,0.942,0.9418,0.9416,0,0,0,0,0,0,0,0,0,0,0,0,0,0.9647,0.9695,0.9612,0.9578,0.9574,0.9543,0.9542,0.9541,0.9492,0.9492,0.9491,0.9491,0.9421,0.9418,0.9416,0.9414,0,0,0.9409,0.9408,0,0,0,0,0,0,0,0,0.965,0.9644,0.9583,0.958,0.9576,0.9526,0.9546,0.9498,0.9493,0.9523,0.9491,0.949,0.9455,0.945,0.9438,0.941,0.9407,0.9409,0.9407,0.9406,0.9406,0,0,0,0,0,0,0,0.9654,0.9647,0.9584,0.9583,0.9578,0.9564,0.9557,0.9537,0.9493,0.9521,0.9517,0.9509,0.9453,0.9441,0.9436,0.9406,0.9409,0.9407,0.9405,0.9405,0.9369,0.9369,0,0,0,0,0,0,0.9663,0.965,0.9587,0.9582,0.9612,0.9563,0.9555,0.9542,0.9493,0.9485,0.951,0.9507,0.9445,0.9439,0.9434,0.9425,0.9406,0.9404,0.9403,0.9368,0.9369,0.9369,0,0,0,0,0,0,0.9665,0.9658,0.9589,0.9615,0.9605,0.9563,0.9549,0.9541,0.9529,0.9486,0.9477,0.9506,0.9444,0.9437,0.9418,0.9422,0.9403,0.9401,0.9368,0.9369,0.9369,0.941,0,0,0,0,0,0,0.9668,0.9659,0.9658,0.9616,0.9604,0.9576,0.9549,0.954,0.9525,0.9521,0.9479,0.9472,0.9443,0.9422,0.9416,0.9419,0.9399,0.9367,0.9368,0.9369,0.9408,0.9412,0.9415,0,0,0,0,0,0.9671,0.9673,0.9659,0.9651,0.9603,0.9577,0.957,0.9538,0.9526,0.9524,0.9496,0.9473,0.9423,0.9421,0.9413,0.9415,0.9367,0.9368,0.9369,0.9407,0.9411,0.9415,0,0,0,0,0,0,0.9718,0.9667,0.965,0.9639,0.9613,0.9569,0.9566,0.9544,0.952,0.9518,0.9478,0.9468,0.9453,0.9432,0.9431,0.9409,0.9392,0.9391,0.9423,0.9427,0.9431,0.9436,0.9397,0,0,0,0,0,0.9727,0.9711,0.9667,0.9661,0.9648,0.9609,0.9597,0.9574,0.9545,0.9533,0.9503,0.9475,0.9452,0.9439,0.9416,0.9405,0.9394,0.9402,0.9406,0.9409,0.9409,0.9399,0.9401,0.9373,0.9373,0.9373,0,0,0.9745,0.9715,0.9708,0.9669,0.9646,0.9629,0.96,0.9584,0.957,0.953,0.9511,0.9488,0.9453,0.9438,0.9429,0.942,0.9414,0.941,0.9413,0.9411,0.94,0.9403,0.9405,0.9373,0.9373,0.9373,0,0,0.977,0.9747,0.9738,0.9715,0.968,0.9653,0.9651,0.961,0.9593,0.9573,0.9541,0.9524,0.9487,0.9463,0.9446,0.9458,0.9435,0.9451,0.947,0.946,0.9463,0.9464,0.9467,0.9468,0.9452,0.9452,0.9452,0,0.9797,0.9771,0.9736,0.972,0.9703,0.9666,0.9656,0.9635,0.9594,0.9583,0.9573,0.9523,0.9498,0.9474,0.9477,0.9465,0.946,0.9456,0.9465,0.9467,0.9468,0.9469,0.9471,0.9454,0.9454,0.9453,0.9453,0,0.9804,0.9786,0.9783,0.9744,0.9727,0.9715,0.9676,0.9663,0.9641,0.9615,0.9593,0.956,0.9529,0.9522,0.9501,0.9495,0.949,0.9473,0.9455,0.9473,0.9474,0.9475,0.9457,0.9456,0.9455,0.9455,0,0,0.9857,0.9798,0.9798,0.9778,0.9736,0.972,0.9705,0.9674,0.9662,0.9635,0.9619,0.9587,0.957,0.9551,0.9526,0.9518,0.9527,0.9502,0.95,0.9506,0.9515,0.9528,0.9529,0.9511,0.9512,0.9512,0.9518,0,0.9874,0.9845,0.9812,0.9794,0.9776,0.9739,0.9725,0.9696,0.9671,0.9651,0.9622,0.96,0.9581,0.9568,0.9558,0.9528,0.9528,0.9527,0.9495,0.9494,0.9504,0.953,0.9543,0.9551,0.9518,0.9518,0.9518,0,0.989,0.9864,0.9844,0.98,0.9791,0.978,0.9747,0.9729,0.9695,0.9677,0.9654,0.9627,0.9606,0.9591,0.9561,0.9561,0.9546,0.9528,0.9528,0.9523,0.9507,0.9524,0.9553,0.9553,0.9519,0.9519,0.9519,0,0.9928,0.9888,0.987,0.9855,0.9805,0.9797,0.9775,0.9741,0.9723,0.9695,0.9683,0.9652,0.9635,0.9611,0.9575,0.9568,0.9548,0.9531,0.9531,0.9532,0.9528,0.9529,0.9553,0.9521,0.9521,0.9521,0.9521,0,0.995,0.9938,0.9886,0.9875,0.986,0.9822,0.9808,0.9783,0.9752,0.9734,0.97,0.9684,0.9639,0.9616,0.9588,0.9566,0.9559,0.9543,0.9535,0.9545,0.9547,0.9534,0.9532,0.9521,0.9521,0.9521,0.9521,0,0.999,0.9955,0.9932,0.9886,0.9874,0.9865,0.9825,0.9811,0.9784,0.9761,0.9754,0.971,0.9681,0.9644,0.9604,0.9584,0.9565,0.9554,0.9577,0.9572,0.9574,0.9574,0.959,0.959,0.9559,0.9559,0.956,0,1.0005,0.9995,0.9948,0.9934,0.9913,0.9891,0.9873,0.9834,0.9816,0.9775,0.9766,0.9735,0.9708,0.9664,0.9627,0.9595,0.9583,0.959,0.9578,0.9587,0.9581,0.9581,0.9579,0.9594,0.9594,0.9595,0.9595,0,1.0035,1.0018,0.9994,0.9963,0.9942,0.9916,0.9888,0.9878,0.9832,0.9814,0.9784,0.9763,0.9721,0.969,0.9653,0.9629,0.9604,0.9599,0.9597,0.9607,0.962,0.9611,0.9584,0.9599,0.9599,0.9598,0.9598,0.9598,1.0062,1.0051,1.0015,0.9989,0.9963,0.9937,0.9922,0.9892,0.9867,0.983,0.9808,0.9779,0.9742,0.969,0.9667,0.9642,0.9632,0.963,0.9629,0.9629,0.9632,0.9624,0.9635,0.9635,0.9635,0.9635,0.9635,0,1.0089,1.0064,1.004,1.0002,0.998,0.9959,0.9926,0.9909,0.9884,0.9852,0.9826,0.979,0.9759,0.972,0.9685,0.9673,0.966,0.9665,0.9665,0.9659,0.9643,0.9647,0.9676,0.9676,0.9676,0.9676,0.9676,0.9676,1.0101,1.008,1.0058,1.0023,0.9998,0.9969,0.9952,0.9927,0.9901,0.9864,0.9838,0.9812,0.9777,0.9739,0.9708,0.9697,0.9686,0.9694,0.9679,0.9665,0.9661,0.9657,0.9661,0.9692,0.9692,0.9697,0.9697,0.9697]}]]